GW4073 Weather Reports


Display with metric or nautical units.
time (UTC)temp
F
wind
direction
speed
MPH
gust
MPH
rain 1hr
in
rain 24hr
in
rain mn
in
humidity
%
barometer
mb
20260507195425 76 238 4.0 5.0 0.00 0.00 0.00 25 1014.3
20260507194922 75 175 3.0 6.0 0.00 0.00 0.00 23 1014.3
20260507194419 75 242 4.0 11.0 0.00 0.00 0.00 26 1014.3
20260507193915 74 222 0.0 7.0 0.00 0.00 0.00 22 1014.3
20260507193412 76 304 3.0 7.0 0.00 0.00 0.00 26 1014.5
20260507192909 77 267 2.0 4.0 0.00 0.00 0.00 24 1014.7
20260507192405 76 282 4.0 4.0 0.00 0.00 0.00 25 1014.5
20260507191902 75 298 2.0 5.0 0.00 0.00 0.00 25 1014.5
20260507191358 75 158 6.0 6.0 0.00 0.00 0.00 23 1015.0
20260507190854 74 336 2.0 6.0 0.00 0.00 0.00 23 1014.8
20260507190353 73 125 2.0 8.0 0.00 0.00 0.00 25 1015.0
20260507185851 75 250 2.0 10.0 0.00 0.00 0.00 26 1015.0
20260507185348 74 345 2.0 9.0 0.00 0.00 0.00 26 1015.1
20260507184845 73 264 3.0 10.0 0.00 0.00 0.00 26 1015.1
20260507184343 75 221 2.0 4.0 0.00 0.00 0.00 26 1015.4
20260507183839 74 248 3.0 4.0 0.00 0.00 0.00 24 1015.4
20260507183336 73 214 2.0 5.0 0.00 0.00 0.00 25 1015.4
20260507182834 74 276 3.0 4.0 0.00 0.00 0.00 26 1015.4
20260507182329 73 285 2.0 7.0 0.00 0.00 0.00 22 1015.5
20260507181826 74 275 3.0 4.0 0.00 0.00 0.00 28 1015.5
20260507181322 75 199 5.0 5.0 0.00 0.00 0.00 23 1015.9
20260507180819 73 285 4.0 5.0 0.00 0.00 0.00 25 1015.8
20260507180316 75 301 2.0 3.0 0.00 0.00 0.00 26 1015.6
20260507175811 72 61 2.0 3.0 0.00 0.00 0.00 25 1015.9
20260507175309 74 213 2.0 5.0 0.00 0.00 0.00 23 1015.9
20260507174806 72 335 0.0 5.0 0.00 0.00 0.00 23 1015.9
20260507174304 71 225 4.0 5.0 0.00 0.00 0.00 27 1015.6
20260507173801 71 205 0.0 3.0 0.00 0.00 0.00 25 1015.7
20260507173258 71 154 2.0 4.0 0.00 0.00 0.00 24 1015.9
20260507172754 72 302 3.0 3.0 0.00 0.00 0.00 26 1016.1
20260507172251 72 291 3.0 4.0 0.00 0.00 0.00 26 1015.9
20260507171747 71 251 2.0 3.0 0.00 0.00 0.00 27 1015.9
20260507171244 70 139 3.0 5.0 0.00 0.00 0.00 25 1016.1
20260507170741 70 302 2.0 4.0 0.00 0.00 0.00 29 1016.1
20260507170237 70 220 4.0 8.0 0.00 0.00 0.00 25 1016.2
20260507165733 69 329 2.0 5.0 0.00 0.00 0.00 28 1016.3
20260507165229 70 194 5.0 5.0 0.00 0.00 0.00 24 1016.1
20260507164726 69 140 2.0 4.0 0.00 0.00 0.00 26 1016.3
20260507164223 68 229 2.0 4.0 0.00 0.00 0.00 26 1016.4
20260507163720 67 89 0.0 4.0 0.00 0.00 0.00 25 1016.4
20260507163218 68 190 1.0 5.0 0.00 0.00 0.00 25 1016.6
20260507162713 66 230 0.0 3.0 0.00 0.00 0.00 29 1016.6
20260507162210 65 333 2.0 4.0 0.00 0.00 0.00 30 1016.6
20260507161706 64 322 2.0 3.0 0.00 0.00 0.00 31 1016.4
20260507161203 64 296 0.0 3.0 0.00 0.00 0.00 31 1016.9
20260507160659 64 261 1.0 3.0 0.00 0.00 0.00 29 1016.6
20260507160156 62 298 1.0 3.0 0.00 0.00 0.00 33 1017.0
20260507155651 62 275 1.0 3.0 0.00 0.00 0.00 35 1016.8
20260507155148 62 266 2.0 2.0 0.00 0.00 0.00 35 1016.8
20260507154644 61 256 1.0 3.0 0.00 0.00 0.00 36 1017.1
20260507154142 60 240 2.0 2.0 0.00 0.00 0.00 35 1017.0
20260507153639 59 169 2.0 4.0 0.00 0.00 0.00 35 1017.1
20260507153135 59 290 2.0 3.0 0.00 0.00 0.00 38 1017.0
20260507152632 60 309 1.0 2.0 0.00 0.00 0.00 36 1017.2
20260507152127 58 249 2.0 2.0 0.00 0.00 0.00 36 1017.2
20260507151624 58 50 0.0 2.0 0.00 0.00 0.00 36 1017.1
20260507151121 56 217 1.0 2.0 0.00 0.00 0.00 39 1017.4
20260507150618 54 264 1.0 3.0 0.00 0.00 0.00 41 1017.1
20260507150114 54 224 0.0 3.0 0.00 0.00 0.00 41 1017.4
20260507145609 53 269 0.0 2.0 0.00 0.00 0.00 41 1017.4
20260507145107 52 328 1.0 2.0 0.00 0.00 0.00 43 1017.5
20260507144603 52 265 1.0 2.0 0.00 0.00 0.00 44 1017.4
20260507144101 51 62 0.0 2.0 0.00 0.00 0.00 44 1017.2
20260507143558 50 246 0.0 2.0 0.00 0.00 0.00 45 1017.4
20260507143055 49 262 2.0 3.0 0.00 0.00 0.00 45 1017.5
20260507142555 49 354 1.0 2.0 0.00 0.00 0.00 47 1017.0
20260507142053 49 340 1.0 1.0 0.00 0.00 0.00 49 1017.4
20260507141548 49 232 0.0 1.0 0.00 0.00 0.00 46 1017.1
20260507141045 49 345 0.0 1.0 0.00 0.00 0.00 47 1017.2
20260507140542 50 200 2.0 4.0 0.00 0.00 0.00 42 1017.0
20260507140040 50 29 1.0 5.0 0.00 0.00 0.00 40 1017.0
20260507135536 49 41 6.0 6.0 0.00 0.00 0.00 39 1017.0
20260507135034 48 2 1.0 4.0 0.00 0.00 0.00 40 1017.0
20260507134530 48 64 3.0 7.0 0.00 0.00 0.00 40 1016.9
20260507134026 47 351 2.0 5.0 0.00 0.00 0.00 41 1016.8
20260507133522 45 37 4.0 7.0 0.00 0.00 0.00 43 1016.9
20260507133021 44 75 4.0 6.0 0.00 0.00 0.00 44 1016.8
20260507132517 44 63 6.0 7.0 0.00 0.00 0.00 44 1016.9
20260507132013 44 64 4.0 6.0 0.00 0.00 0.00 44 1016.9
20260507131510 44 61 5.0 7.0 0.00 0.00 0.00 43 1016.5
20260507131007 44 61 4.0 9.0 0.00 0.00 0.00 43 1016.6
20260507130504 43 53 5.0 10.0 0.00 0.00 0.00 44 1016.5
20260507130003 43 19 2.0 11.0 0.00 0.00 0.00 44 1016.5
20260507125501 43 93 3.0 8.0 0.00 0.00 0.00 43 1016.4
20260507124957 43 64 7.0 14.0 0.00 0.00 0.00 44 1016.6
20260507124454 42 324 3.0 8.0 0.00 0.00 0.00 44 1016.6
20260507123952 42 32 2.0 7.0 0.00 0.00 0.00 45 1016.8
20260507123449 42 343 0.0 6.0 0.00 0.00 0.00 47 1016.5
20260507122945 42 327 0.0 4.0 0.00 0.00 0.00 46 1016.4
20260507122441 42 194 2.0 4.0 0.00 0.00 0.00 46 1016.5
20260507121937 43 65 4.0 7.0 0.00 0.00 0.00 43 1016.5
20260507121432 43 35 2.0 6.0 0.00 0.00 0.00 42 1016.5
20260507120930 43 33 6.0 6.0 0.00 0.00 0.00 43 1016.5
20260507120426 43 346 1.0 10.0 0.00 0.00 0.00 42 1016.6
20260507115922 44 42 4.0 9.0 0.00 0.00 0.00 41 1016.6
20260507115418 44 67 5.0 13.0 0.00 0.00 0.00 41 1016.8
20260507114914 44 39 9.0 14.0 0.00 0.00 0.00 41 1016.6
20260507114411 44 65 6.0 17.0 0.00 0.00 0.00 41 1016.8
20260507113908 44 59 9.0 14.0 0.00 0.00 0.00 41 1016.5
20260507113406 44 34 7.0 16.0 0.00 0.00 0.00 41 1016.4
20260507051058 54 50 10.0 15.0 0.00 0.00 0.00 32 1016.2
20260507050554 54 50 10.0 15.0 0.00 0.00 0.00 32 1016.2
20260507050051 54 50 10.0 15.0 0.00 0.00 0.00 32 1016.2
20260507045548 54 73 7.0 11.0 0.00 0.00 0.00 32 1016.1
20260507045045 54 67 4.0 10.0 0.00 0.00 0.00 32 1016.1
20260507044541 53 60 4.0 7.0 0.00 0.00 0.00 32 1016.2
20260507044038 52 53 4.0 8.0 0.00 0.00 0.00 34 1016.2
20260507043534 50 59 3.0 6.0 0.00 0.00 0.00 39 1016.1
20260507043032 48 63 4.0 6.0 0.00 0.00 0.00 42 1016.2
20260507042527 48 58 3.0 4.0 0.00 0.00 0.00 45 1016.3
20260507042017 48 42 3.0 4.0 0.00 0.00 0.00 45 1016.2
20260507041515 48 93 3.0 5.0 0.00 0.00 0.00 43 1016.4
20260507041011 49 72 3.0 5.0 0.00 0.00 0.00 40 1016.1
20260507040507 49 86 1.0 5.0 0.00 0.00 0.00 42 1016.1
20260507040002 49 45 4.0 6.0 0.00 0.00 0.00 41 1016.1
20260507035459 50 54 4.0 5.0 0.00 0.00 0.00 40 1015.9
20260507034951 50 103 3.0 4.0 0.00 0.00 0.00 39 1015.9
20260507034448 51 105 4.0 6.0 0.00 0.00 0.00 38 1015.8
20260507033946 51 64 2.0 4.0 0.00 0.00 0.00 38 1015.6
20260507033444 51 87 3.0 4.0 0.00 0.00 0.00 38 1015.5
20260507032941 51 73 2.0 5.0 0.00 0.00 0.00 39 1015.5
20260507032437 51 84 3.0 4.0 0.00 0.00 0.00 41 1015.4
20260507031933 51 80 2.0 2.0 0.00 0.00 0.00 41 1015.2
20260507031430 52 68 2.0 4.0 0.00 0.00 0.00 38 1015.1
20260507030927 53 38 2.0 5.0 0.00 0.00 0.00 35 1015.1
20260507030424 54 46 3.0 4.0 0.00 0.00 0.00 34 1015.0
20260507025921 55 54 4.0 6.0 0.00 0.00 0.00 33 1014.9
20260507025418 55 52 2.0 3.0 0.00 0.00 0.00 31 1014.9
20260507024916 57 56 1.0 2.0 0.00 0.00 0.00 30 1014.8
20260507024413 59 321 2.0 5.0 0.00 0.00 0.00 25 1014.5
20260507023908 59 336 3.0 4.0 0.00 0.00 0.00 24 1014.5
20260507023406 57 307 2.0 2.0 0.00 0.00 0.00 32 1014.4
20260507022903 58 290 0.0 2.0 0.00 0.00 0.00 29 1014.4
20260507022400 59 31 4.0 5.0 0.00 0.00 0.00 24 1014.2
20260507021856 60 344 1.0 3.0 0.00 0.00 0.00 24 1014.4
20260507021351 61 15 2.0 3.0 0.00 0.00 0.00 24 1014.2
20260507020849 61 350 2.0 5.0 0.00 0.00 0.00 23 1014.4
20260507020345 62 341 0.0 3.0 0.00 0.00 0.00 25 1014.1
20260507015842 62 49 2.0 5.0 0.00 0.00 0.00 23 1014.2
20260507015340 62 333 2.0 3.0 0.00 0.00 0.00 24 1014.1
20260507014837 63 8 1.0 8.0 0.00 0.00 0.00 23 1013.9
20260507014333 63 11 3.0 8.0 0.00 0.00 0.00 22 1013.9
20260507013830 64 341 2.0 4.0 0.00 0.00 0.00 22 1013.7
20260507013327 64 308 3.0 3.0 0.00 0.00 0.00 22 1013.7
20260507012825 64 55 5.0 7.0 0.00 0.00 0.00 21 1013.8
20260507012320 64 313 1.0 3.0 0.00 0.00 0.00 24 1013.9
20260507011818 65 19 1.0 3.0 0.00 0.00 0.00 22 1013.6
20260507011315 65 354 1.0 5.0 0.00 0.00 0.00 21 1013.6
20260507010814 65 273 2.0 3.0 0.00 0.00 0.00 22 1013.6
20260507010309 66 31 6.0 10.0 0.00 0.00 0.00 20 1013.8
20260507005802 66 76 8.0 13.0 0.00 0.00 0.00 21 1013.5
20260507005258 66 56 6.0 8.0 0.00 0.00 0.00 21 1013.6
20260507004755 66 13 2.0 13.0 0.00 0.00 0.00 22 1013.6
20260507004253 66 23 4.0 6.0 0.00 0.00 0.00 21 1013.4
20260507003749 67 58 8.0 17.0 0.00 0.00 0.00 20 1013.6
20260507003244 67 56 7.0 12.0 0.00 0.00 0.00 21 1013.7
20260507002740 67 80 7.0 14.0 0.00 0.00 0.00 20 1013.4
20260507002236 67 56 6.0 14.0 0.00 0.00 0.00 21 1013.4
20260507001733 67 33 8.0 17.0 0.00 0.00 0.00 20 1013.0
20260507001230 69 59 7.0 10.0 0.00 0.00 0.00 20 1013.1
20260507000727 70 318 2.0 4.0 0.00 0.00 0.00 21 1012.9
20260507000222 68 67 4.0 10.0 0.00 0.00 0.00 20 1012.9
20260506235720 69 36 9.0 19.0 0.00 0.00 0.00 22 1012.9
20260506235215 69 309 2.0 7.0 0.00 0.00 0.00 24 1012.5
20260506234712 68 57 4.0 8.0 0.00 0.00 0.00 22 1012.8
20260506234210 69 58 6.0 6.0 0.00 0.00 0.00 21 1012.5
20260506233707 68 31 7.0 10.0 0.00 0.00 0.00 21 1012.5
20260506233203 67 114 8.0 12.0 0.00 0.00 0.00 21 1012.8
20260506232700 68 46 7.0 12.0 0.00 0.00 0.00 22 1012.8
20260506232155 68 63 13.0 17.0 0.00 0.00 0.00 22 1012.7
20260506231652 67 43 4.0 22.0 0.00 0.00 0.00 21 1012.8
20260506231151 68 56 9.0 18.0 0.00 0.00 0.00 21 1012.9
20260506230647 68 30 8.0 11.0 0.00 0.00 0.00 21 1012.9
20260506230144 67 39 3.0 20.0 0.00 0.00 0.00 21 1012.7
20260506225640 68 47 5.0 18.0 0.00 0.00 0.00 22 1012.5
20260506225137 68 47 14.0 19.0 0.00 0.00 0.00 21 1012.8
20260506224634 68 35 5.0 15.0 0.00 0.00 0.00 24 1012.7
20260506224130 68 57 10.0 15.0 0.00 0.00 0.00 23 1012.5
20260506223627 68 350 6.0 11.0 0.00 0.00 0.00 23 1012.8
20260506223123 69 34 5.0 13.0 0.00 0.00 0.00 22 1012.9
20260506222620 70 336 5.0 12.0 0.00 0.00 0.00 23 1012.8
20260506222116 69 343 2.0 15.0 0.00 0.00 0.00 23 1012.9
20260506221614 72 327 4.0 5.0 0.00 0.00 0.00 22 1012.8
20260506221112 71 28 3.0 6.0 0.00 0.00 0.00 24 1012.9
20260506220608 69 55 6.0 8.0 0.00 0.00 0.00 23 1012.9
20260506215600 71 44 6.0 6.0 0.00 0.00 0.00 23 1012.9
20260506215056 69 109 4.0 8.0 0.00 0.00 0.00 24 1013.0
20260506214553 70 25 3.0 7.0 0.00 0.00 0.00 24 1013.0
20260506214050 69 289 4.0 10.0 0.00 0.00 0.00 25 1012.9
20260506213548 69 37 10.0 12.0 0.00 0.00 0.00 25 1012.8
20260506213045 69 39 4.0 7.0 0.00 0.00 0.00 25 1012.8
20260506212542 68 40 10.0 13.0 0.00 0.00 0.00 26 1012.8
20260506212037 68 62 9.0 11.0 0.00 0.00 0.00 26 1013.1
20260506211533 68 41 6.0 14.0 0.00 0.00 0.00 25 1013.1
20260506211030 69 43 13.0 16.0 0.00 0.00 0.00 24 1013.1
20260506210527 69 61 6.0 13.0 0.00 0.00 0.00 26 1012.9
20260506210024 69 302 5.0 6.0 0.00 0.00 0.00 24 1012.9
20260506205520 68 50 13.0 13.0 0.00 0.00 0.00 26 1012.8
20260506205015 68 77 7.0 14.0 0.00 0.00 0.00 26 1012.8
20260506204514 69 300 3.0 16.0 0.00 0.00 0.00 25 1012.8
20260506204010 69 311 4.0 9.0 0.00 0.00 0.00 25 1012.8
20260506203509 68 95 6.0 9.0 0.00 0.00 0.00 27 1012.8
20260506203004 69 324 3.0 6.0 0.00 0.00 0.00 26 1012.8
20260506202502 69 330 5.0 12.0 0.00 0.00 0.00 28 1012.4
20260506201957 67 45 5.0 17.0 0.00 0.00 0.00 27 1012.8
20260506201455 67 45 9.0 17.0 0.00 0.00 0.00 28 1012.7
20260506200946 68 40 17.0 20.0 0.00 0.00 0.00 27 1012.5
20260506200442 68 13 5.0 10.0 0.00 0.00 0.00 27 1012.8
20260506195939 69 302 4.0 4.0 0.00 0.00 0.00 30 1012.4